DW7913 Island Beach AU current weather conditions

sailwx.info

Wind from 032 at 3 knots gusting 8

Last reported at 2020-Jan-21 14:45 UTC.
Time now 2020-Jan-21 15:27 UTC

Location: S 35°48' E 137°48'.
View on Google Maps.

See reports from other nearby stations

  
Tides and Currents Weather Stations Pressure Air Temp Water Temp Dewpoint Dewpoint Depression Visibility Wind Speed Wind Dir Waves Ship Positions
date/time (UTC)wind fromknots sea level pressurealtimeterstation pressurevisibilityair tempwater tempwave heightnotes
2020-Jan-21 15:00 049 3 gusting 6
2020-Jan-21 14:45 032 3 gusting 8
2020-Jan-21 14:17 055 3 gusting 9
2020-Jan-21 14:01 005 3 gusting 6
2020-Jan-21 13:47 005 1 gusting 6
2020-Jan-21 13:17 022 3 gusting 6
2020-Jan-21 13:01 022 2 gusting 6
2020-Jan-21 12:46 011 0 gusting 5
2020-Jan-21 12:16 042 4 gusting 7
2020-Jan-21 12:00 040 1 gusting 6
2020-Jan-21 11:45 009 2 gusting 6
2020-Jan-21 11:16 035 0 gusting 3
2020-Jan-21 11:00 035
2020-Jan-21 10:45 035
2020-Jan-21 10:15 035 1 gusting 6
2020-Jan-21 09:47 049 2 gusting 6
2020-Jan-21 09:15 050 4 gusting 7
2020-Jan-21 09:01 029 3 gusting 6
2020-Jan-21 08:47 025 3 gusting 8
2020-Jan-21 08:16 043 3 gusting 9
2020-Jan-21 08:01 030 6 gusting 11
2020-Jan-21 07:46 042 6 gusting 9
2020-Jan-21 07:16 024 6 gusting 12
2020-Jan-21 07:00 041 6 gusting 12
2020-Jan-21 06:45 030 6 gusting 12
2020-Jan-21 06:15 042 6 gusting 11
2020-Jan-21 06:00 065 7 gusting 11
2020-Jan-21 05:45 043 7 gusting 13
2020-Jan-21 05:17 056 6 gusting 11
2020-Jan-21 05:02 062 6 gusting 12
2020-Jan-21 04:46 023 6 gusting 13
2020-Jan-21 04:31 046 7 gusting 12
2020-Jan-21 04:15 034 6 gusting 13
2020-Jan-21 04:00 053 6 gusting 10
2020-Jan-21 03:45 023 6 gusting 13
2020-Jan-21 03:30 040 6 gusting 12
2020-Jan-21 03:15 062 6 gusting 12
2020-Jan-21 03:00 039 4 gusting 11
2020-Jan-21 02:45 049 5 gusting 13
2020-Jan-21 02:32 053 6 gusting 11
2020-Jan-21 02:16 058 6 gusting 13
2020-Jan-21 02:02 355 8 gusting 12
2020-Jan-21 01:49 036 6 gusting 12
2020-Jan-21 01:31 042 6 gusting 9
2020-Jan-21 01:15 059 6 gusting 9
2020-Jan-21 01:01 038 4 gusting 8
2020-Jan-21 00:45 005 4 gusting 7
2020-Jan-21 00:31 057 5 gusting 8
2020-Jan-21 00:15 005 4 gusting 8
2020-Jan-21 00:00 054 5 gusting 9
2020-Jan-20 23:45 057 4 gusting 9
2020-Jan-20 23:15 050 3 gusting 7
2020-Jan-20 23:00 038 2 gusting 7
2020-Jan-20 22:47 026 3 gusting 6
2020-Jan-20 22:31 044 1 gusting 5
2020-Jan-20 22:17 051 1 gusting 4
2020-Jan-20 22:01 033 1 gusting 4
2020-Jan-20 21:47 218
2020-Jan-20 21:31 218
2020-Jan-20 21:16 224
2020-Jan-20 21:01 218
2020-Jan-20 20:45 218
2020-Jan-20 20:30 218
2020-Jan-20 20:16 219
2020-Jan-20 20:01 219
2020-Jan-20 19:46 219
2020-Jan-20 19:30 219
2020-Jan-20 19:15 219
2020-Jan-20 19:02 219
2020-Jan-20 18:47 219
2020-Jan-20 18:34 219
2020-Jan-20 18:19 219
2020-Jan-20 18:01 219
2020-Jan-20 17:47 219
2020-Jan-20 17:31 219
2020-Jan-20 17:16 219
2020-Jan-20 17:01 219
2020-Jan-20 16:45 219
2020-Jan-20 16:30 219
2020-Jan-20 16:15 219
2020-Jan-20 16:00 219
2020-Jan-20 15:45 219
2020-Jan-20 15:30 219
2020-Jan-20 15:15 219
2020-Jan-20 15:01 219
2020-Jan-20 14:47 219
2020-Jan-20 14:31 219
2020-Jan-20 14:19 219
2020-Jan-20 14:02 219
2020-Jan-20 13:47 219
2020-Jan-20 13:31 219
2020-Jan-20 13:15 161
2020-Jan-20 13:02 257
2020-Jan-20 12:46 248 0 gusting 4
2020-Jan-20 12:31 258
2020-Jan-20 12:16 171
2020-Jan-20 12:00 233 1 gusting 7
2020-Jan-20 11:46 228 1 gusting 6
2020-Jan-20 11:30 178 1 gusting 6
2020-Jan-20 11:15 243
2020-Jan-20 11:00 195 0 gusting 4
2020-Jan-20 10:45 190 0 gusting 6
2020-Jan-20 10:30 218
2020-Jan-20 10:17 229
2020-Jan-20 10:01 180 1 gusting 6
2020-Jan-20 09:46 205 1 gusting 6
2020-Jan-20 09:30 236 1 gusting 8
2020-Jan-20 09:17 283 1 gusting 7
2020-Jan-20 09:01 246 1 gusting 8
2020-Jan-20 08:46 240
2020-Jan-20 08:31 248 2 gusting 9
2020-Jan-20 08:15 240 2 gusting 9
2020-Jan-20 08:00 240 2 gusting 13
2020-Jan-20 07:45 243 2 gusting 9
2020-Jan-20 07:30 251 1 gusting 8
2020-Jan-20 07:17 199 2 gusting 7
2020-Jan-20 07:01 208 1 gusting 7
2020-Jan-20 06:47 202 3 gusting 11
2020-Jan-20 06:31 240 0 gusting 13
2020-Jan-20 06:16 219 4 gusting 12
2020-Jan-20 06:02 194 4 gusting 10
2020-Jan-20 05:46 209 3 gusting 10
2020-Jan-20 05:30 253 3 gusting 13
2020-Jan-20 05:15 153 2 gusting 12
2020-Jan-20 05:00 271 2 gusting 9
2020-Jan-20 04:45 208 3 gusting 11
2020-Jan-20 04:31 228 3 gusting 13
2020-Jan-20 04:16 235 5 gusting 15
2020-Jan-20 04:00 281 5 gusting 11
2020-Jan-20 03:45 176 5 gusting 13
2020-Jan-20 03:30 140 3 gusting 17
2020-Jan-20 03:15 171 3 gusting 12
2020-Jan-20 03:02 279 5 gusting 13
2020-Jan-20 02:46 207 1 gusting 8
2020-Jan-20 02:32 148 6 gusting 12
2020-Jan-20 02:17 225 5 gusting 17
2020-Jan-20 02:01 165 4 gusting 13
2020-Jan-20 01:46 171 4 gusting 12
2020-Jan-20 01:31 215 3 gusting 9
2020-Jan-20 01:17 202 3 gusting 10
2020-Jan-20 01:02 212 1 gusting 9
2020-Jan-20 00:46 188 2 gusting 11
2020-Jan-20 00:30 181 2 gusting 17
2020-Jan-20 00:15 295 3 gusting 10
2020-Jan-20 00:00 011 0 gusting 10
2020-Jan-19 23:45 246 3 gusting 11
2020-Jan-19 23:30 244 3 gusting 11
2020-Jan-19 23:16 202 0 gusting 11
2020-Jan-19 23:01 265 2 gusting 12
2020-Jan-19 22:46 200 1 gusting 12
2020-Jan-19 22:31 123 3 gusting 9
2020-Jan-19 22:17 224 2 gusting 16
2020-Jan-19 22:01 239 0 gusting 13
2020-Jan-19 21:46 220 2 gusting 11
2020-Jan-19 21:31 114 2 gusting 13
2020-Jan-19 21:16 221 1 gusting 10
2020-Jan-19 21:00 137 3 gusting 12
2020-Jan-19 20:46 148 2 gusting 13
2020-Jan-19 20:31 244 3 gusting 16
2020-Jan-19 20:15 248 2 gusting 12
2020-Jan-19 20:00 213 0 gusting 10
2020-Jan-19 19:45 167 3 gusting 13
2020-Jan-19 19:30 198 3 gusting 11
2020-Jan-19 19:17 265 3 gusting 13
2020-Jan-19 19:01 257 4 gusting 11
2020-Jan-19 18:46 259 2 gusting 13
2020-Jan-19 18:31 216 2 gusting 13
2020-Jan-19 18:16 182 2 gusting 9
2020-Jan-19 18:01 196 1 gusting 8
2020-Jan-19 17:47 227 3 gusting 11
2020-Jan-19 17:31 178 3 gusting 12
2020-Jan-19 17:15 180 3 gusting 11
2020-Jan-19 17:01 282 1 gusting 10
2020-Jan-19 16:46 202 2 gusting 9
2020-Jan-19 16:30 184 3 gusting 13
2020-Jan-19 16:15 173 3 gusting 18
2020-Jan-19 16:00 202 3 gusting 13
2020-Jan-19 15:45 217 3 gusting 11
2020-Jan-19 15:35 188 3 gusting 11
2020-Jan-19 15:17 193 2 gusting 13
2020-Jan-19 15:03 254 3 gusting 12